Location: Skalnate Pleso
(49.1889°N, 20.2450°E)
Time: 03:12:44
(UTC+01:00)

COSMO-SKYMED 1 - Pass Details

Date: 19 November 2019
Orbit: 621 x 623 km, 97.9° (Epoch: 14 December)

Event Time Altitude Azimuth Distance (km) Brightness Sun altitude
Rises 05:11:09 0° 180° (S) 2,892 6.1 -16.6°
Reaches altitude 10° 05:13:24 10° 187° (S) 1,991 5.2 -16.3°
Maximum altitude 05:17:34 46° 261° (W) 838 2.8 -15.6°
Enters shadow 05:21:43 10° 335° (NNW) 1,980 4.8 -15.0°
